< < Back
Terminal Aerodrome Forecast


Current Version              Previous Versions:   1  2  3  4  5  6  7  8  9  

Terminal Aerodrome Forecast

117
FTUS42 KTAE 200500
TAFDHN
TAF
KDHN 200523Z 2006/2106 00000KT P6SM SKC
     FM201000 00000KT 5SM BR SKC
     FM201300 10003KT P6SM FEW250
     FM201800 27004KT P6SM FEW040 SCT250=

Latest METAR

667
SAUS70 KWBC 210100 RRA
MTRDHN
METAR KDHN 210053Z 33005KT 10SM CLR 17/13 A3003 RMK AO2 SLP166
T01720133


USA.gov is the U.S. government's official web portal to all federal, state and local government web resources and services.